Showing default

COSMOS 1989 (ETALON 1), 19751

Orbit data source: Space-Track

COSMOS 1989 (ETALON 1), 19751 is a payload satellite owned by NPO PM (CIS) in MEO that was launched on Tue, 10 Jan 1989 UTC via a PROTON-K/DM-2 launch vehicle from the Tyuratam Missile And Space Complex (TTMTR). Payloads include a variety of satellites, spacecraft, and rockets equipped with specific instruments for various scientific and technological missions. These include communications satellites like Starlink; space stations such as the ISS; scientific satellites like the Hubble; Earth observation satellites from companies like Planet Labs, Umbra, and HawkEye 360; GPS; miniature CubeSats for education and research; and military/defense satellites.

Loading next visibility...
COSMOS 1989 (ETALON 1) details
Identifier
19751, 1989-001C
Orbit
MEO
Last TLE update21 hours ago
Origin
Flag of CISNPO PM (CIS)
ManufacturerOAZ?
MissionOperational Defense Geodetic
Bus & MotorETALON, Unknown motor
Mass1,230 kg wet, 1,230 kg dry
Launch date (UTC)
1989-01-10 (36 years ago)
Launch vehicle
PROTON-K/DM-2
Launch site
Tyuratam Missile And Space Complex (TTMTR)
Object type
Payload
Rocket body
Debris
Shape & HBRSphere, 1.29 m
Radar Cross Section1.307 m², Large (>1 m²)

Expand to show TLE details & history

TLE from 21 hours ago
0 COSMOS 1989 (ETALON 1)
1 19751U 89001C   25024.90767618 -.00000013  00000-0  00000-0 0  9993
2 19751  64.6589  89.6172 0023711 216.5885 315.2508  2.13156156280537
Epoch: 2025-01-24T21:47Z
Definitive object data (Epoch: 2025-01-24T21:47:03.221Z)
Latitude7.56002°
Longitude174.80963°
Altitude19,082.627 km
Speed3.96 km/s
True Right ascension17h 44m 08s
True Declination7° 32' 51"
Sunlit
Object was in daylight at TLE epoch
Visualization TLE readout
Latitude49.0541°
Longitude145.38178°
Altitude19,135.481 km
Speed3.954 km/s
Apparent Right ascension14h 38m 56s
Apparent Declination44° 39' 13"
Sunlit
Object is in daylight
Visualization observer readout
Local Sidereal Time20:08:37
Azimuth304.179° NW
Elevation31.529°
Doppler factor1
Orbital elements
Apogee altitude19,185.664 km
Perigee altitude19,064.723 km
Semi-major axis25,503.33 km
Eccentricity0.0023711
Inclination64.6589°
RAAN89.6172°
Arg. of periapsis216.5885°
True anomaly315.05911°
Mean anomaly315.2508°
Eccentric anomaly315.155°
Mean motion0.5329 °/min
BSTARUnknown
Orbital period675.55 mins
Loading maneuver chart data...

COSMOS 1989 (ETALON 1) Visibility forecast

Observer location: undefined°, undefined

Span
Click to sort rows by Start time (UTC) header in descending order
Start Az.
Max El. time (UTC)
Max El. Az.
Max El.
End time (UTC)
End Az.
102 mins2025-01-25 18:47:47.263Z304.152° NW2025-01-25 18:59:47.263Z296.72° NW27.954°2025-01-25 20:29:47.263Z250.505° W
234 mins2025-01-26 01:38:47.263Z140.382° SSE2025-01-26 03:35:47.263Z77.909° E38.262°2025-01-26 05:32:47.263Z30.96° NE
181 mins2025-01-26 15:46:47.263Z329.662° NNW2025-01-26 17:40:47.263Z282.734° WNW37.629°2025-01-26 18:47:47.263Z236.918° WSW
|